Weather History for Hilton Head Island, SC

Change the Weather History Date:

Friday, February 8, 2013

  Actual Average Record
Temperature  
Mean Temperature 55 °F -  
Max Temperature 62 °F 58 °F 53 °F (2014)
Min Temperature 48 °F 37 °F 39 °F (2014)
Degree Days  
Heating Degree Days 10    
Growing Degree Days 5 (Base 50)    
Moisture  
Dew Point 52 °F    
Average Humidity 93    
Maximum Humidity 100    
Minimum Humidity 59    
Precipitation  
Precipitation 0.00 in - - ()
Sea Level Pressure  
Sea Level Pressure 29.94 in    
Wind  
Wind Speed 8 mph (WNW)    
Max Wind Speed 12 mph    
Max Gust Speed 20 mph    
Visibility 10 miles    
Events      
Averages and records for this station are not official NWS values.
T = Trace of Precipitation, MM = Missing Value Source: NWS Daily Summary

Daily Weather History Graph

Daily Weather History Graph

Search for Another Location

Airport:

Trip Planner

Search our weather history database for the weather conditions in past years. The results will help you decide how hot, cold, wet, or windy it might be!

Date:

Astronomy

Feb. 08, 2013 Rise Set
Actual Time 7:11 AM EST 6:03 PM EST
Civil Twilight 6:45 AM EST 6:28 PM EST
Nautical Twilight 6:17 AM EST 6:57 PM EST
Astronomical Twilight 5:48 AM EST 7:26 PM EST
Moon 5:35 AM EST (2/8) 4:36 PM EST (2/8)
Length of Visible Light 11h 42m
Length of Day
10h 51m
Waning Crescent, 3% of the Moon is Illuminated
Feb 8
Waning Crescent
Feb 10
New
Feb 17
First Quarter
Feb 25
Full
Mar 4
Last Quarter

Hourly Weather History & Observations

Time (EST) Temp. Dew Point Humidity Pressure Visibility Wind Dir Wind Speed Gust Speed Precip Events Conditions
12:15 AM 57.2 °F 57.2 °F 100% 29.78 in 10.0 mi NW 10.4 mph - 0.00 in   Overcast
12:35 AM 55.4 °F 55.4 °F 100% 29.79 in 10.0 mi West 9.2 mph - 0.00 in   Overcast
12:55 AM 53.6 °F 53.6 °F 100% 29.79 in 10.0 mi WNW 11.5 mph 18.4 mph 0.00 in   Overcast
1:15 AM 53.6 °F 53.6 °F 100% 29.80 in 10.0 mi West 6.9 mph - 0.00 in   Overcast
1:35 AM 51.8 °F 51.8 °F 100% 29.82 in 10.0 mi West 8.1 mph - 0.00 in   Overcast
1:55 AM 51.8 °F 51.8 °F 100% 29.83 in 7.0 mi WNW 9.2 mph 17.3 mph 0.00 in   Overcast
2:15 AM 51.8 °F 51.8 °F 100% 29.83 in 10.0 mi WNW 9.2 mph - 0.00 in   Overcast
2:35 AM 51.8 °F 51.8 °F 100% 29.84 in 10.0 mi WNW 9.2 mph 18.4 mph 0.00 in   Overcast
2:55 AM 51.8 °F 51.8 °F 100% 29.83 in 10.0 mi NW 6.9 mph 19.6 mph 0.00 in   Overcast
3:15 AM 50.0 °F 50.0 °F 100% 29.84 in 10.0 mi NW 4.6 mph - 0.00 in   Overcast
3:35 AM 50.0 °F 50.0 °F 100% 29.84 in 10.0 mi NNW 8.1 mph - 0.00 in   Overcast
3:55 AM 50.0 °F 50.0 °F 100% 29.85 in 10.0 mi NNW 8.1 mph - 0.00 in   Overcast
4:15 AM 50.0 °F 50.0 °F 100% 29.85 in 10.0 mi WNW 6.9 mph - 0.00 in   Overcast
4:35 AM 50.0 °F 50.0 °F 100% 29.87 in 10.0 mi NNW 8.1 mph 17.3 mph 0.00 in   Overcast
4:55 AM 48.2 °F 48.2 °F 100% 29.87 in 10.0 mi NW 11.5 mph 19.6 mph 0.00 in   Overcast
5:15 AM 48.2 °F 48.2 °F 100% 29.89 in 10.0 mi NW 9.2 mph 18.4 mph 0.00 in   Overcast
5:35 AM 48.2 °F 48.2 °F 100% 29.90 in 10.0 mi NNW 11.5 mph 18.4 mph 0.00 in   Overcast
6:50 AM 50.0 °F 48.2 °F 94% 29.93 in 10.0 mi NNW 9.2 mph - N/A   Overcast
7:50 AM 48.2 °F 46.4 °F 93% 29.96 in 10.0 mi West 6.9 mph - N/A   Overcast
8:50 AM 48.2 °F 46.4 °F 93% 29.98 in 10.0 mi WNW 9.2 mph - N/A   Overcast
9:10 AM 50.0 °F 46.4 °F 87% 29.99 in 10.0 mi West 6.9 mph - N/A   Mostly Cloudy
9:55 AM 53.6 °F 46.4 °F 77% 30.00 in 10.0 mi WNW 10.4 mph - N/A   Mostly Cloudy
1:50 PM 62.6 °F 48.2 °F 59% 29.96 in 10.0 mi SW 6.9 mph - N/A   Clear
2:50 PM 62.6 °F 50.0 °F 63% 29.96 in 10.0 mi SW 8.1 mph - N/A   Clear
3:50 PM 62.6 °F 50.0 °F 63% 29.95 in 10.0 mi West 11.5 mph - N/A   Clear
4:50 PM 62.6 °F 50.0 °F 63% 29.96 in 10.0 mi West 11.5 mph - N/A   Clear
5:50 PM 60.8 °F 50.0 °F 68% 29.98 in 10.0 mi West 6.9 mph - N/A   Clear
6:50 PM 57.2 °F 50.0 °F 77% 29.99 in 10.0 mi WSW 4.6 mph - N/A   Clear
7:50 PM 55.4 °F 50.0 °F 82% 30.02 in 10.0 mi WSW 3.5 mph - N/A   Clear
8:15 PM 55.4 °F 55.4 °F 100% 30.04 in 10.0 mi West 3.5 mph - 0.00 in   Scattered Clouds
8:35 PM 55.4 °F 55.4 °F 100% 30.04 in 10.0 mi Calm Calm - 0.00 in   Overcast
8:55 PM 57.2 °F 57.2 °F 100% 30.05 in 10.0 mi West 3.5 mph - 0.00 in   Overcast
9:15 PM 57.2 °F 57.2 °F 100% 30.05 in 10.0 mi West 4.6 mph - 0.00 in   Overcast
9:35 PM 59.0 °F 59.0 °F 100% 30.05 in 10.0 mi West 4.6 mph - 0.00 in   Overcast
9:55 PM 57.2 °F 57.2 °F 100% 30.06 in 10.0 mi West 4.6 mph - 0.00 in   Scattered Clouds
10:15 PM 57.2 °F 57.2 °F 100% 30.06 in 10.0 mi West 5.8 mph - 0.00 in   Clear
10:35 PM 57.2 °F 57.2 °F 100% 30.07 in 10.0 mi West 3.5 mph - 0.00 in   Clear
10:55 PM 55.4 °F 55.4 °F 100% 30.07 in 10.0 mi Calm Calm - 0.00 in   Clear
11:15 PM 55.4 °F 55.4 °F 100% 30.07 in 10.0 mi West 4.6 mph - 0.00 in   Clear
11:35 PM 55.4 °F 55.4 °F 100% 30.08 in 10.0 mi NW 3.5 mph - 0.00 in   Clear
11:55 PM 55.4 °F 55.4 °F 100% 30.09 in 10.0 mi NNW 4.6 mph - 0.00 in   Clear